Flag for United Kingdom Weather past 2 weeks in Derby, England, United Kingdom

Now
41 °F

Passing clouds.


Feels Like: 36 °F
Forecast: 44 / 51 °F
Wind: 8 mph from North

Location: East Midlands

Current Time: Apr 2, 2015 at 8:00:04 AM

Latest Report: Apr 2, 2015 at 7:20 AM


Visibility: N/A

Pressure: 30.09 "Hg

Humidity: 76%

Dew point: 34 °F

Location of DerbyLocation

Historic Weather in Derby — Graph

°F

Derby temperature yesterday

Maximum temperature yesterday: 48 °F (at 12:20 PM)
Minimum temperature yesterday: 37 °F (at 2:20 AM)
Average temperature yesterday: 43 °F

Past Weeks' High & Low Weather Summary

 TemperatureHumidityPressure
High59 °F (Mar 28, 2:20 PM)100% (Mar 18, 6:20 AM)30.57 "Hg (Mar 18, 6:20 AM)
Low30 °F (Mar 18, 6:20 AM)46% (Mar 30, 1:50 PM)29.15 "Hg (Mar 29, 1:20 PM)
Average44 °F77%29.98 "Hg
* Reported Mar 18 6:20 AM — Apr 2 7:20 AM, Derby, Weather by CustomWeather, © 2015

Note: Actual official high and low records may vary slightly from our data, if they occured in-between our weather recording intervals... More about our weather records

Advertising

Derby weather history for previous 24 hours

 ConditionsComfort  
Time TempWeatherWind HumidityBarometerVisibility
7:20 AM
Thu, Apr 2
41 °FPassing clouds.8 mph76%30.09 "HgN/A
6:20 AM41 °FPassing clouds.8 mph87%30.07 "HgN/A
5:50 AM41 °FPassing clouds.8 mph87%30.04 "HgN/A
5:20 AM41 °FPassing clouds.8 mph87%30.04 "HgN/A
4:50 AM41 °FPassing clouds.12 mph87%30.01 "HgN/A
4:20 AM41 °FPassing clouds.8 mph93%30.01 "HgN/A
3:50 AM41 °FLight rain. Passing clouds.12 mph93%30.01 "HgN/A
3:20 AM43 °FLight rain. Passing clouds.10 mph87%29.98 "HgN/A
2:50 AM43 °FLight rain. Passing clouds.13 mph87%29.98 "HgN/A
2:20 AM43 °FLight rain. Passing clouds.10 mph100%29.98 "HgN/A
1:50 AM43 °FLight rain. Passing clouds.8 mph100%29.98 "Hg6 mi
1:20 AM43 °FLight rain. Passing clouds.9 mph100%29.98 "Hg6 mi
12:50 AM43 °FLight rain. Passing clouds.9 mph100%29.98 "Hg6 mi
12:20 AM43 °FLight rain. Partly cloudy.8 mph100%29.98 "Hg4 mi
11:50 PM
Wed, Apr 1
45 °FLight rain. Partly cloudy.9 mph93%29.98 "Hg4 mi
11:20 PM45 °FLight rain. Partly cloudy.10 mph93%29.98 "Hg5 mi
10:50 PM45 °FLight rain. Partly cloudy.10 mph93%29.98 "Hg5 mi
10:20 PM45 °FLight rain. Passing clouds.12 mph87%30.01 "HgN/A
9:50 PM45 °FLight rain. Passing clouds.15 mph87%30.01 "HgN/A
9:20 PM45 °FLight rain. Passing clouds.16 mph87%30.04 "HgN/A
8:50 PM45 °FPassing clouds.15 mph87%30.04 "HgN/A
8:20 PM45 °FPartly sunny.14 mph87%30.07 "HgN/A
7:50 PM45 °FScattered showers. Partly sunny.15 mph87%30.07 "HgN/A
7:20 PM45 °FScattered showers. Partly sunny.17 mph87%30.09 "HgN/A
6:50 PM45 °FSprinkles. Partly sunny.21 mph81%30.09 "HgN/A
6:20 PM45 °FPartly sunny.23 mph81%30.09 "HgN/A
5:50 PM46 °FPartly sunny.15 mph76%30.12 "HgN/A
5:20 PM46 °FSprinkles. Partly sunny.20 mph76%30.12 "HgN/A
4:50 PM46 °FPartly sunny.20 mph82%30.12 "HgN/A
4:20 PM46 °FPartly sunny.20 mph71%30.12 "HgN/A
3:50 PM45 °FSprinkles. Partly sunny.16 mph81%30.15 "HgN/A
3:20 PM46 °FSprinkles. Partly sunny.21 mph71%30.15 "HgN/A
2:50 PM48 °FPartly sunny.25 mph66%30.15 "HgN/A
2:20 PM46 °FBroken clouds.21 mph82%30.15 "HgN/A
1:50 PM43 °FBroken clouds.18 mph87%30.18 "Hg4 mi
1:20 PM46 °FSprinkles. Broken clouds.17 mph66%30.18 "HgN/A
12:50 PM46 °FScattered showers. Partly sunny.17 mph66%30.18 "HgN/A
12:20 PM48 °FLight rain. Partly sunny.20 mph58%30.18 "HgN/A
11:50 AM46 °FPartly sunny.20 mph62%30.18 "HgN/A
11:20 AM46 °FPartly sunny.22 mph62%30.18 "HgN/A
10:50 AM45 °FPartly sunny.22 mph66%30.18 "HgN/A
10:20 AM46 °FScattered clouds.24 mph62%30.18 "HgN/A
9:50 AM45 °FScattered clouds.22 mph66%30.15 "HgN/A
8:50 AM43 °FScattered clouds.18 mph71%30.18 "HgN/A
8:20 AM41 °FScattered clouds.16 mph76%30.15 "HgN/A
Weather by CustomWeather, © 2015

See weather overviewHow to use our weather pages